Flag for U.S.A. Weather past 2 weeks in Lakewood, New Jersey, U.S.A.

Now
34 °F

Overcast.


Feels Like: 27 °F
Forecast: 26 / 37 °F
Wind: 8 mph from North

Location: Belmar-Farmdale

Current Time: Dec 20, 2014 at 12:22:07 PM

Latest Report: Dec 20, 2014 at 11:55 AM


Visibility: 10 mi

Pressure: 30.27 "Hg

Humidity: 56%

Dew point: 19 °F

Location of LakewoodLocation

Historic Weather in Lakewood — Graph

°F

Lakewood temperature yesterday

Maximum temperature yesterday: 39 °F (at 12:55 PM)
Minimum temperature yesterday: 30 °F (at 8:55 PM)
Average temperature yesterday: 35 °F

Past Weeks' High & Low Weather Summary

 TemperatureHumidityPressure
High54 °F (Dec 17, 11:55 AM)88% (Dec 6, 5:35 PM)30.63 "Hg (Dec 6, 5:35 PM)
Low28 °F (Dec 8, 2:55 AM)34% (Dec 7, 11:35 PM)29.61 "Hg (Dec 10, 1:35 PM)
Average38 °F65%30.04 "Hg
* Reported Dec 5 11:15 AM — Dec 20 11:15 AM, Lakewood, Weather by CustomWeather, © 2014

Note: Actual official high and low records may vary slightly from our data, if they occured in-between our weather recording intervals... More about our weather records

Advertising

Lakewood weather history for previous 24 hours

 ConditionsComfort  
Time TempWeatherWind HumidityBarometerVisibility
11:15 AM
Dec 20
34 °FOvercast.8 mph56%30.29 "Hg10 mi
10:55 AM32 °FOvercast.8 mph60%30.29 "Hg10 mi
10:35 AM32 °FOvercast.6 mph60%30.29 "Hg10 mi
10:15 AM32 °FOvercast.7 mph60%30.29 "Hg10 mi
9:55 AM32 °FOvercast.7 mph55%30.30 "Hg10 mi
9:35 AM32 °FOvercast.6 mph55%30.30 "Hg10 mi
9:15 AM32 °FOvercast.7 mph60%30.30 "Hg10 mi
8:55 AM32 °FOvercast.7 mph55%30.29 "Hg10 mi
8:35 AM32 °FOvercast.6 mph55%30.27 "Hg10 mi
8:15 AM30 °FOvercast.7 mph59%30.27 "Hg10 mi
7:35 AM30 °FOvercast.6 mph59%30.25 "Hg10 mi
7:15 AM30 °FOvercast.8 mph59%30.25 "Hg10 mi
6:55 AM30 °FOvercast.7 mph59%30.25 "Hg10 mi
6:35 AM30 °FOvercast.6 mph59%30.25 "Hg10 mi
6:15 AM30 °FOvercast.7 mph59%30.24 "Hg10 mi
5:55 AM32 °FOvercast.7 mph55%30.24 "Hg10 mi
5:35 AM30 °FOvercast.7 mph59%30.24 "Hg10 mi
5:15 AM30 °FOvercast.7 mph64%30.24 "Hg10 mi
4:55 AM30 °FOvercast.8 mph59%30.23 "Hg10 mi
4:35 AM30 °FOvercast.6 mph59%30.22 "Hg10 mi
4:15 AM30 °FOvercast.6 mph59%30.21 "Hg10 mi
3:55 AM30 °FOvercast.6 mph59%30.21 "Hg10 mi
3:35 AM30 °FOvercast.5 mph64%30.20 "Hg10 mi
3:15 AM30 °FOvercast.5 mph59%30.20 "Hg10 mi
2:55 AM30 °FOvercast.6 mph64%30.20 "Hg10 mi
2:35 AM30 °FOvercast.3 mph64%30.20 "Hg10 mi
2:15 AM30 °FOvercast.3 mph64%30.19 "Hg10 mi
1:55 AM30 °FOvercast.7 mph64%30.19 "Hg10 mi
1:35 AM30 °FOvercast.6 mph64%30.19 "Hg10 mi
1:15 AM30 °FOvercast.5 mph59%30.19 "Hg10 mi
12:55 AM30 °FOvercast.6 mph59%30.18 "Hg10 mi
12:35 AM30 °FPassing clouds.7 mph59%30.19 "Hg10 mi
12:15 AM30 °FOvercast.10 mph59%30.18 "Hg10 mi
11:55 PM
Dec 19
30 °FOvercast.10 mph59%30.19 "Hg10 mi
11:35 PM30 °FOvercast.7 mph59%30.19 "Hg10 mi
11:15 PM30 °FPassing clouds.7 mph59%30.19 "Hg10 mi
10:55 PM30 °FPassing clouds.6 mph59%30.18 "Hg10 mi
10:35 PM30 °FPassing clouds.3 mph59%30.17 "Hg10 mi
10:15 PM30 °FOvercast.6 mph59%30.17 "Hg10 mi
9:55 PM30 °FOvercast.6 mph59%30.16 "Hg10 mi
9:35 PM30 °FPassing clouds.9 mph59%30.16 "Hg10 mi
9:15 PM30 °FPassing clouds.10 mph59%30.16 "Hg10 mi
8:55 PM30 °FPassing clouds.6 mph59%30.15 "Hg10 mi
8:35 PM32 °FPassing clouds.9 mph55%30.14 "Hg10 mi
8:15 PM34 °FOvercast.12 mph51%30.14 "Hg10 mi
7:55 PM34 °FOvercast.13 mph56%30.14 "Hg10 mi
7:35 PM34 °FOvercast.14 mph56%30.15 "Hg10 mi
6:55 PM34 °FOvercast.13 mph56%30.14 "Hg10 mi
6:35 PM34 °FOvercast.10 mph56%30.14 "Hg10 mi
6:15 PM34 °FPassing clouds.9 mph56%30.13 "Hg10 mi
5:55 PM34 °FClear.12 mph56%30.12 "Hg10 mi
5:35 PM34 °FClear.5 mph56%30.11 "Hg10 mi
4:55 PM36 °FClear.9 mph48%30.08 "Hg10 mi
4:35 PM36 °FClear.14 mph52%30.08 "Hg10 mi
4:15 PM37 °FSunny.14 mph48%30.06 "Hg10 mi
3:55 PM37 °FSunny.17 mph48%30.05 "Hg10 mi
3:35 PM37 °FSunny.15 mph48%30.05 "Hg10 mi
3:15 PM37 °FSunny.16 mph48%30.05 "Hg10 mi
2:55 PM37 °FPassing clouds.14 mph48%30.04 "Hg10 mi
2:35 PM37 °FPartly sunny.16 mph48%30.04 "Hg10 mi
2:15 PM37 °FOvercast.15 mph48%30.04 "Hg10 mi
1:55 PM37 °FOvercast.13 mph48%30.04 "Hg10 mi
1:35 PM37 °FOvercast.12 mph52%30.04 "Hg10 mi
1:15 PM39 °FOvercast.18 mph48%30.03 "Hg10 mi
12:55 PM39 °FPartly sunny.16 mph48%30.03 "Hg10 mi
12:35 PM37 °FPartly sunny.14 mph52%30.04 "Hg10 mi
12:15 PM37 °FOvercast.15 mph52%30.03 "Hg10 mi
Weather by CustomWeather, © 2014

See weather overviewHow to use our weather pages